Location: Ar Ranvel
(48.3000°N, 4.8833°W)
Time: 15:42:27
(UTC+00:00)

In-Cosmos 22 - Pass Details

Date: 16 June 2021
Orbit: 785 x 876 km, 81.2° (Epoch: 30 July)

Event Time Altitude Azimuth Distance (km) Brightness Sun altitude
Rises 21:00:19 0° 173° (S) 3,274 6.8 -5.5°
Reaches altitude 10° 21:02:45 10° 168° (SSE) 2,344 6.0 -5.8°
Maximum altitude 21:07:47 49° 94° (E) 1,016 4.4 -6.4°
Drops below altitude 10° 21:12:52 10° 21° (NNE) 2,362 6.9 -7.0°
Sets 21:15:19 0° 17° (NNE) 3,301 7.8 -7.2°
